[[{"header":{"parameterUnit":"m.s-1","parameterCategory":1,"la1":30.2991,"la2":30.254,"lo1":-89.0895,"lo2":-89.0444,"dy":0.0017,"dx":0.0017,"nx":28,"ny":28,"refTime":"2025-07-18T21:00:00:Z","depth":0,"parameterNumber":2,"parameterNumberName":"U-component_of_WINDS"},"data":[0,0,0,0,0,0,0,0,0,0,0,0,0,0,0,0,0,0,0,0,0,0,0,0,0,0,0,0,0,0,0,0,0,0,0,0,0,0,0,0,0,0,0,0,0,0,0,0,0,0,0,0,0,0,0,0,0,0,3.2443,3.2444,0,3.2499,3.2499,3.25,3.2473,3.2472,3.2471,3.2469,3.2524,3.2527,3.253,0,0,0,0,0,0,0,0,0,0,0,0,0,3.2309,3.2311,3.2443,3.2444,3.2444,3.2499,3.2499,3.25,3.2474,3.2472,3.247,3.2469,3.2523,3.2527,3.253,0,0,0,0,0,0,0,0,0,0,0,0,0,3.2366,3.2312,3.2443,3.2438,3.2438,3.2499,3.2499,3.25,3.2474,3.2472,3.247,3.2468,3.2522,3.2526,3.253,3.2599,0,0,3.2543,3.2545,0,0,0,0,0,0,0,0,3.2363,3.2371,3.2438,3.2438,3.2438,3.2477,3.2472,3.2533,3.2475,3.246,3.2469,3.2467,3.251,3.2515,3.253,3.2601,3.2604,3.2543,3.2546,3.2548,3.2549,0,0,0,0,0,0,0,3.2359,3.2368,3.2465,3.2439,3.2439,3.2431,3.2437,3.2484,3.2496,3.2461,3.2459,3.2467,3.251,3.2526,3.2531,3.2605,3.2543,3.2547,3.255,3.2551,3.273,3.2732,0,0,0,0,0,0,3.2355,3.2365,3.2463,3.2467,3.2395,3.2435,3.2442,3.2467,3.2496,3.2498,3.2468,3.2465,3.252,3.2526,3.2533,3.2611,3.2548,3.2552,3.2554,3.2728,3.273,3.2733,0,0,0,0,0,0,3.2353,3.2365,3.2461,3.2415,3.2427,3.244,3.2468,3.2469,3.2485,3.2501,3.2503,3.2483,3.2519,3.2527,3.2582,3.2613,3.2554,3.2557,3.2725,3.2728,3.2731,3.2771,0,0,0,0,0,0,3.2349,3.2364,3.2391,3.2416,3.243,3.251,3.247,3.2472,3.2493,3.2489,3.2515,3.2518,3.2518,3.2576,3.2586,3.2618,3.2561,3.2722,3.2726,3.273,3.2767,3.2775,3.2783,0,0,0,0,0,3.2344,3.2401,3.2393,3.2405,3.2464,3.2512,3.2519,3.2519,3.2496,3.2522,3.2531,3.2517,3.2609,3.2581,3.2593,3.2626,3.272,3.2725,3.273,3.2764,3.2774,3.2782,0,0,0,0,0,0,3.2379,3.2404,3.2395,3.2462,3.2485,3.2507,3.2541,3.2531,3.256,3.2556,3.2553,3.2559,3.2615,3.2627,3.2596,3.2692,3.266,3.2668,3.2682,3.2692,3.27,3.2694,3.2564,0,0,0,0,0,3.2394,3.2432,3.2452,3.2508,3.252,3.2529,3.255,3.2547,3.257,3.258,3.2594,3.2616,3.265,3.2672,3.2704,3.2769,3.2772,3.2798,3.2806,3.2812,3.2817,3.2849,3.2859,3.2749,3.2749,3.2749,0,0,3.2426,3.2445,3.2469,3.2515,3.2533,3.257,3.2537,3.2579,3.2605,3.2586,3.2637,3.2648,3.2673,3.2732,3.2759,3.2743,3.2849,3.2818,3.2823,3.2825,3.2855,3.2865,3.2874,3.2753,3.2752,3.2751,0,0,3.2503,3.2522,3.2569,3.2587,3.2614,3.2619,3.263,3.2654,3.266,3.2712,3.2697,3.2728,3.2787,3.2804,3.2821,3.29,3.2886,3.2911,3.2951,3.2981,3.299,3.2997,3.3022,3.3031,3.2917,3.2917,3.2917,0,3.2539,3.2595,3.2595,3.2636,3.2656,3.264,3.2686,3.2703,3.2739,3.2752,3.2735,3.2806,3.2822,3.2882,3.2901,3.2917,3.2927,3.2907,3.2989,3.2996,3.3003,3.3027,3.3037,3.292,3.292,3.2919,3.2919,0,3.2636,3.2675,3.271,3.2744,3.2767,3.2811,3.2815,3.2839,3.2834,3.284,3.2891,3.2909,3.2943,3.2958,3.2954,3.3017,3.3006,3.2989,3.2957,3.3016,3.3038,3.3047,3.2923,3.2923,3.2922,3.2921,0,0,3.2736,3.2768,3.278,3.2793,3.2821,3.285,3.2892,3.2925,3.2943,3.2968,3.3001,3.305,3.3033,3.3052,3.305,3.3077,3.3134,3.3056,3.3056,3.3066,3.32,3.321,3.3221,3.3126,3.3128,3.3129,3.3196,0,3.2812,3.2885,3.2884,3.2951,3.2985,3.2969,3.3005,3.3025,3.3031,3.3059,3.3066,3.3099,3.3077,3.3087,3.3114,3.3121,3.316,3.3117,3.3153,3.3154,3.3144,3.3233,3.3245,3.3307,3.3205,3.3207,3.3208,0,3.291,3.2936,3.3006,3.3025,3.3039,3.3072,3.3099,3.3128,3.3149,3.3151,3.317,3.3163,3.3203,3.3171,3.3224,3.3195,3.321,3.3215,3.3218,3.3219,3.3183,3.3233,3.3328,3.3336,3.3222,3.3221,3.322,0,3.2971,3.3024,3.3072,3.3085,3.3109,3.3131,3.3142,3.3161,3.3179,3.3204,3.3215,3.3244,3.3259,3.3281,3.3281,3.3259,3.3333,3.3302,3.3333,3.3333,3.3348,3.3346,3.3443,3.3363,3.3363,3.3363,3.3363,0,3.3053,3.3096,3.3099,3.3128,3.3174,3.3173,3.3218,3.3227,3.3243,3.3271,3.3261,3.3288,3.3287,3.3314,3.3315,3.3356,3.3364,3.3365,3.3364,3.3364,3.3363,3.3372,3.3366,3.3365,3.3365,3.3364,3.3364,0,3.3128,3.3133,3.3183,3.3201,3.3207,3.3239,3.3254,3.328,3.3285,3.3322,3.333,3.3337,3.3368,3.337,3.3407,3.3406,3.3456,3.3452,3.3448,3.3447,3.3476,3.3472,3.3579,3.3592,3.3506,3.3507,3.3508,0,3.3179,3.3211,3.3232,3.325,3.3262,3.3293,3.3311,3.331,3.3329,3.3353,3.3376,3.3406,3.3429,3.3479,3.3486,3.3513,3.3507,3.3543,3.3511,3.3509,3.3503,3.35,3.3502,3.3548,3.3549,3.355,3.3551,0,3.3267,3.3267,3.3294,3.3321,3.3343,3.3365,3.3385,3.34,3.3401,3.3423,3.3454,3.3472,3.3508,3.3536,3.3562,3.3571,3.356,3.3561,3.3569,3.3568,3.3563,3.3562,3.3462,3.3558,3.3557,3.3557,3.3556,3.3556,3.3329,3.3355,3.3373,3.3403,3.3417,3.3435,3.346,3.3467,3.3493,3.3522,3.352,3.3553,3.357,3.3603,3.3614,3.3639,3.3627,3.364,3.3642,3.3644,3.3646,3.3562,3.3644,3.3644,3.3644,3.3644,3.3644,0,3.3414,3.3424,3.3451,3.3478,3.3501,3.3489,3.351,3.3529,3.3558,3.3575,3.3598,3.3632,3.3659,3.3668,3.3694,3.3711,3.3707,3.3718,3.3715,3.3717,3.3657,3.3646,3.3721,3.3721,3.3721,3.3721,3.3721,3.3721,3.346,3.3502,3.3504,3.3552,3.3562,3.3594,3.3606,3.3622,3.3635,3.3673,3.3695,3.3701,3.3714,3.374,3.3763,3.3765,3.3774,3.3786,3.3786,3.3729,3.3721,3.3714,3.3703,3.3789,3.3789,3.3843,3.3843,3.3844]},{"header":{"parameterUnit":"m.s-1","parameterCategory":1,"la1":30.2991,"la2":30.254,"lo1":-89.0895,"lo2":-89.0444,"dy":0.0017,"dx":0.0017,"nx":28,"ny":28,"refTime":"2025-07-18T21:00:00:Z","depth":0,"parameterNumber":3,"parameterNumberName":"V-component_of_WINDS"},"data":[0,0,0,0,0,0,0,0,0,0,0,0,0,0,0,0,0,0,0,0,0,0,0,0,0,0,0,0,0,0,0,0,0,0,0,0,0,0,0,0,0,0,0,0,0,0,0,0,0,0,0,0,0,0,0,0,0,0,4.192,4.1922,0,4.2088,4.209,4.2092,4.2084,4.2082,4.208,4.2077,4.2246,4.2252,4.2259,0,0,0,0,0,0,0,0,0,0,0,0,0,4.1588,4.1594,4.192,4.1922,4.1924,4.2088,4.209,4.2092,4.2085,4.2082,4.2079,4.2076,4.2243,4.2251,4.2259,0,0,0,0,0,0,0,0,0,0,0,0,0,4.1741,4.1596,4.192,4.194,4.1944,4.2087,4.209,4.2093,4.2085,4.2082,4.2078,4.2075,4.2241,4.2251,4.2261,4.2393,0,0,4.2291,4.2296,0,0,0,0,0,0,0,0,4.1733,4.1753,4.1935,4.1939,4.1943,4.2062,4.2034,4.2193,4.2086,4.2031,4.2077,4.2073,4.2187,4.2201,4.224,4.2401,4.2408,4.2292,4.2298,4.2302,4.2305,0,0,0,0,0,0,0,4.1722,4.1746,4.1986,4.1938,4.1943,4.1939,4.1957,4.2065,4.2127,4.2036,4.2036,4.2056,4.2189,4.2231,4.2244,4.2411,4.2292,4.2301,4.2307,4.2311,4.2686,4.269,0,0,0,0,0,0,4.1707,4.1737,4.1981,4.1991,4.1827,4.1948,4.1968,4.2027,4.2126,4.2138,4.2059,4.2055,4.2215,4.2233,4.225,4.2411,4.2302,4.2312,4.2318,4.2683,4.2687,4.2692,0,0,0,0,0,0,4.17,4.1729,4.1974,4.1864,4.1895,4.1958,4.2024,4.2032,4.2075,4.2143,4.2154,4.2091,4.2213,4.2236,4.2358,4.2417,4.2316,4.2325,4.2678,4.2684,4.2689,4.2734,0,0,0,0,0,0,4.1691,4.1727,4.1779,4.1866,4.1901,4.208,4.2028,4.2038,4.2092,4.2089,4.2176,4.2187,4.2212,4.2343,4.2368,4.2429,4.2333,4.2673,4.2681,4.2688,4.2728,4.2741,4.2752,0,0,0,0,0,4.1679,4.1785,4.1782,4.1812,4.1969,4.2084,4.2104,4.2132,4.2097,4.215,4.2193,4.2184,4.2406,4.2355,4.2383,4.2448,4.2669,4.2678,4.2687,4.2722,4.2739,4.2752,0,0,0,0,0,0,4.1703,4.1797,4.1795,4.1932,4.2,4.2082,4.215,4.2149,4.2227,4.2221,4.2251,4.227,4.2392,4.2432,4.2373,4.2581,4.2533,4.2548,4.255,4.2566,4.2578,4.2566,4.2342,0,0,0,0,0,4.1725,4.1812,4.1888,4.2002,4.2037,4.2087,4.2139,4.2154,4.2225,4.2254,4.2306,4.2375,4.246,4.2515,4.2597,4.2733,4.2751,4.2792,4.2804,4.2814,4.2826,4.2899,4.2917,4.2721,4.2721,4.2721,0,0,4.177,4.1832,4.1885,4.2009,4.2063,4.2151,4.2112,4.2207,4.2272,4.2268,4.2386,4.2427,4.2505,4.2634,4.2693,4.2671,4.2884,4.2825,4.2832,4.284,4.291,4.2929,4.2945,4.2727,4.2726,4.2725,0,0,4.1897,4.1953,4.2053,4.2109,4.2192,4.2225,4.2248,4.2331,4.2358,4.2477,4.2475,4.2552,4.2698,4.2753,4.2801,4.2946,4.294,4.2972,4.3036,4.3107,4.3122,4.3136,4.3187,4.3204,4.2984,4.2984,4.2984,0,4.1942,4.2077,4.2105,4.2201,4.2254,4.2255,4.2355,4.2407,4.2512,4.2549,4.2522,4.2705,4.2757,4.2898,4.2933,4.2972,4.2999,4.2962,4.3118,4.3132,4.3145,4.3194,4.3213,4.2987,4.2987,4.2986,4.2986,0,4.2127,4.222,4.2291,4.2393,4.2454,4.2552,4.2593,4.2651,4.2661,4.2695,4.2815,4.2878,4.2972,4.3006,4.3016,4.3148,4.3132,4.3112,4.3064,4.3167,4.3213,4.3232,4.2992,4.2991,4.299,4.2989,0,0,4.2276,4.2391,4.2417,4.2462,4.2553,4.2625,4.2721,4.2814,4.2862,4.2934,4.3015,4.3137,4.3119,4.3172,4.3188,4.325,4.3359,4.3222,4.3224,4.3244,4.3506,4.3521,4.3542,4.3356,4.3359,4.3362,4.3499,0,4.2412,4.2585,4.2612,4.2763,4.2848,4.2848,4.2932,4.2995,4.303,4.3105,4.3142,4.3228,4.3198,4.323,4.3291,4.3333,4.3412,4.3323,4.3429,4.3433,4.341,4.3566,4.3583,4.3709,4.3518,4.3521,4.3523,0,4.2594,4.2671,4.2831,4.2909,4.2945,4.302,4.3106,4.3179,4.325,4.327,4.3329,4.3337,4.3435,4.3383,4.3517,4.3456,4.35,4.3527,4.3532,4.3543,4.3484,4.3581,4.375,4.3769,4.3552,4.355,4.3547,0,4.2685,4.2829,4.2943,4.2982,4.3075,4.3128,4.3169,4.3237,4.329,4.3364,4.3399,4.3483,4.3529,4.3593,4.3623,4.3583,4.3754,4.3705,4.3773,4.3772,4.3809,4.3806,4.3988,4.3838,4.3838,4.3838,4.3837,0,4.2834,4.2931,4.2985,4.3055,4.3163,4.3192,4.3298,4.3337,4.3397,4.3473,4.3478,4.3549,4.3584,4.3659,4.3683,4.3789,4.381,4.3828,4.3833,4.3828,4.3825,4.3857,4.3849,4.3843,4.3842,4.3841,4.384,0,4.2955,4.2994,4.3118,4.3196,4.3218,4.3294,4.336,4.3427,4.346,4.3556,4.358,4.3631,4.3721,4.3756,4.3865,4.3881,4.4003,4.4001,4.3979,4.3981,4.4046,4.4039,4.4254,4.4283,4.4114,4.4116,4.4117,0,4.3047,4.3122,4.3208,4.326,4.3303,4.3386,4.344,4.3471,4.3526,4.3612,4.3668,4.3757,4.383,4.3972,4.4018,4.41,4.41,4.417,4.4113,4.4104,4.41,4.4095,4.4102,4.418,4.4182,4.4183,4.4184,0,4.3206,4.3222,4.3301,4.3386,4.3451,4.3519,4.3586,4.3627,4.3667,4.3729,4.3821,4.3877,4.3988,4.4076,4.4161,4.4201,4.4199,4.4202,4.4222,4.4217,4.4201,4.4209,4.4007,4.4197,4.4196,4.4195,4.4194,4.4194,4.3315,4.3381,4.3452,4.3538,4.3592,4.3653,4.3719,4.376,4.3838,4.3931,4.3943,4.4041,4.4108,4.4221,4.4265,4.434,4.4322,4.4351,4.4358,4.4365,4.4369,4.4189,4.4356,4.4355,4.4355,4.4355,4.4355,0,4.3474,4.3519,4.3599,4.3692,4.3759,4.3752,4.3825,4.3881,4.3968,4.4031,4.4102,4.4206,4.429,4.4342,4.4427,4.4477,4.4478,4.4498,4.4494,4.4503,4.4381,4.4355,4.4496,4.4496,4.4496,4.4496,4.4495,4.4495,4.3565,4.3675,4.3699,4.3835,4.3879,4.3975,4.4017,4.4073,4.4123,4.4239,4.431,4.4344,4.4402,4.449,4.4566,4.4579,4.461,4.4631,4.4642,4.4527,4.4512,4.4498,4.4474,4.4638,4.4638,4.4759,4.476,4.4761]}]]